Wind_Speed
13 11 14 15 14 14 13 13 13 10 7 5 5 4 3 4 5 6 9 9 13 15 10 10 12 12 12 13 11 9 7 8 12 15 17 16 15 14 12 11 10 9 8 7 8 9 11 14 17 18 20 22 20 16 14 14 15 16 16 15 16 15 13 12 10 7 5 3 2 4 6 9 11 12 13 13 12 10 8 5 3 5 8 10 11 10
15 14 15 14 11 12 13 12 11 9 7 7 6 5 2 4 7 8 7 6 10 11 6 8 12 13 12 12 9 8 7 11 16 16 15 15 15 13 11 11 11 10 8 7 8 9 11 13 16 18 21 21 19 15 14 15 17 17 17 17 17 15 13 11 9 7 5 2 0 2 5 7 9 11 12 13 13 12 10 6 4 3 4 6 8 10
15 16 12 9 7 9 11 11 11 9 8 7 6 5 2 4 8 7 4 5 9 8 3 4 11 14 13 12 10 8 7 10 14 15 14 14 15 13 11 13 13 11 8 6 7 9 9 11 13 15 19 20 19 15 12 13 16 18 19 19 17 15 14 12 9 7 5 3 2 2 4 6 8 9 10 12 13 13 11 9 6 4 3 3 4 7
13 11 9 8 7 8 9 10 10 9 8 8 7 6 3 6 9 7 4 5 6 5 4 4 8 11 12 11 11 10 8 10 14 15 14 15 16 14 11 15 15 10 7 6 7 8 8 9 11 13 16 18 19 16 13 12 14 18 19 19 17 16 14 12 10 8 6 4 4 3 4 5 7 8 9 10 12 13 13 11 9 6 5 4 3 3
11 8 8 8 5 5 6 7 10 10 9 9 8 5 2 5 6 6 5 4 2 3 4 7 8 9 10 8 10 11 10 11 13 14 15 17 19 16 13 16 15 10 8 7 8 8 7 8 9 12 15 16 16 15 14 12 14 17 19 19 17 15 14 13 11 9 7 6 5 5 5 5 6 8 9 9 11 13 14 13 10 8 7 6 5 3
10 8 5 3 1 3 6 7 10 11 10 10 8 4 1 3 5 5 4 3 1 2 5 7 4 5 8 7 8 12 13 14 14 14 17 19 21 19 16 18 16 12 11 10 9 8 8 9 10 11 13 13 13 12 12 12 15 18 18 18 16 14 14 13 12 10 8 8 7 7 7 7 7 8 9 10 10 12 14 14 12 10 8 7 7 5
11 8 4 1 4 5 6 9 10 11 12 11 6 4 4 2 6 5 3 3 2 4 6 4 2 4 7 8 8 10 12 13 14 14 16 20 22 20 18 20 18 15 14 12 11 10 10 11 10 10 11 11 11 11 11 12 15 18 19 18 16 15 15 14 13 12 10 10 9 9 8 8 9 10 10 10 10 11 13 14 13 11 8 7 7 6
11 7 4 3 5 4 6 11 10 12 13 10 6 5 4 4 5 5 3 2 2 5 3 2 6 8 7 8 8 7 7 8 10 12 16 20 22 21 21 22 20 17 15 13 11 10 11 12 11 11 10 9 10 11 11 11 14 17 20 19 18 16 15 15 14 14 12 12 12 11 10 9 9 11 11 11 10 10 11 12 12 11 8 6 6 6
8 6 5 5 4 1 6 11 9 11 12 9 6 5 6 6 4 5 5 2 2 4 3 3 8 7 6 10 9 6 7 5 6 9 13 19 23 23 23 23 21 18 17 15 13 11 11 12 13 12 11 10 9 10 11 12 14 18 21 20 19 16 14 14 14 15 15 14 14 13 12 11 11 11 10 10 11 10 10 11 11 10 9 7 5 5
8 8 7 7 4 1 4 8 9 9 10 9 8 7 7 6 5 5 5 4 3 4 3 3 7 5 4 11 11 8 8 6 5 6 8 14 21 24 24 24 23 20 19 18 15 13 13 13 13 13 12 11 10 10 12 14 15 17 19 20 19 17 15 14 14 16 17 17 17 16 15 13 13 12 10 10 10 10 9 10 11 10 9 8 6 5
11 11 11 8 5 4 3 6 10 10 10 9 8 8 6 6 6 5 5 5 3 2 3 4 7 5 3 8 13 11 9 8 7 6 5 8 15 23 26 25 23 21 21 20 18 16 16 16 15 14 13 13 12 13 15 17 17 16 17 19 19 19 17 16 16 17 18 18 19 18 18 17 16 15 13 11 10 9 9 9 11 10 9 8 7 6
13 13 12 10 7 6 6 7 10 11 12 10 8 7 5 5 6 5 4 6 3 2 4 6 7 7 5 7 12 12 10 9 8 6 6 7 11 18 25 26 24 23 22 22 20 19 18 18 18 16 15 15 15 16 16 17 16 16 17 19 20 20 20 19 19 19 19 20 19 20 20 20 20 18 16 13 11 9 9 10 11 10 9 8 7 6
13 13 12 11 10 8 7 8 11 12 13 11 10 9 6 2 3 2 2 3 2 2 5 8 7 7 8 8 9 9 8 7 7 6 7 8 9 14 22 27 26 24 23 23 22 20 19 19 18 16 14 15 16 15 15 15 14 14 15 17 20 22 22 22 21 22 22 22 22 22 22 21 21 21 19 17 14 11 9 10 11 10 8 6 5 5
13 11 12 12 11 11 10 10 12 14 14 14 14 13 8 4 4 1 2 1 1 3 6 9 7 5 7 7 10 11 9 8 9 8 9 9 10 13 20 27 29 26 25 24 23 21 21 20 18 15 14 14 15 15 14 13 12 12 14 16 20 23 23 23 21 21 23 24 25 25 25 25 24 23 24 25 20 14 10 10 10 9 7 5 4 3
9 8 10 13 12 11 12 12 12 13 13 14 15 15 12 8 5 3 3 2 2 4 7 8 5 3 5 6 8 12 12 11 11 11 12 11 12 15 19 26 30 28 26 26 25 24 23 22 19 16 14 15 15 15 13 12 12 12 14 18 21 23 23 23 23 25 27 26 25 25 26 28 27 26 30 30 23 15 10 9 9 7 6 4 2 2
8 8 8 13 14 12 12 14 16 15 13 12 15 16 13 11 9 5 4 5 6 5 4 6 5 3 7 8 7 8 9 10 11 12 12 12 14 16 18 23 29 29 28 28 27 26 26 24 21 17 15 16 15 13 12 12 12 14 18 22 23 24 24 23 23 25 26 22 19 21 22 23 25 28 33 30 21 14 10 8 8 6 4 3 1 1
8 9 8 12 15 15 13 15 19 19 14 11 15 18 15 12 11 7 5 4 7 5 3 6 5 5 7 8 7 7 6 6 8 11 13 14 15 17 17 21 28 31 33 32 27 27 27 24 21 18 14 13 13 12 14 14 14 17 22 26 25 23 21 20 19 22 24 20 17 19 20 19 20 22 26 24 18 14 11 9 8 6 5 4 3 3
9 9 9 11 13 14 14 14 18 21 17 12 13 17 15 11 11 8 5 3 4 2 4 4 3 5 6 4 7 8 4 4 7 8 10 11 12 15 17 21 28 33 36 34 23 19 22 23 19 15 11 12 14 16 17 16 16 19 24 28 26 20 17 19 19 19 19 18 18 19 19 18 17 15 16 18 18 16 14 13 11 9 7 6 5 6
13 10 9 11 11 11 12 12 13 16 18 14 11 13 13 8 9 11 6 2 3 1 2 3 2 6 9 7 7 8 6 6 7 7 6 4 5 8 12 17 23 28 30 24 12 9 17 21 15 11 10 13 15 16 16 16 18 20 23 26 24 17 12 13 15 15 14 15 16 16 15 16 17 14 14 17 18 17 16 16 14 12 10 8 8 8
16 13 8 10 11 10 12 13 12 12 16 15 11 13 14 8 8 13 9 6 6 3 1 2 1 5 11 12 9 9 9 9 8 6 5 4 4 5 8 12 15 15 14 11 5 6 11 11 7 8 11 13 13 14 16 17 18 20 21 22 19 12 7 7 10 11 12 13 15 16 15 16 16 14 17 20 20 17 16 17 16 14 12 11 10 10
19 17 11 8 11 10 10 12 12 12 15 15 13 15 16 10 9 12 8 6 6 4 3 2 1 3 10 13 12 11 10 10 9 7 7 6 6 5 6 9 9 6 6 6 6 5 5 5 4 8 11 13 14 16 17 17 16 17 18 17 15 11 7 6 8 8 9 11 13 15 15 14 15 15 19 22 21 19 18 17 17 16 15 14 12 12
18 18 14 9 10 10 9 10 12 12 12 13 13 15 15 12 11 10 5 6 7 4 5 5 2 5 10 11 11 10 8 9 9 8 7 8 8 7 7 8 8 5 4 6 7 7 6 6 7 9 11 13 14 15 14 13 12 13 14 14 12 9 6 5 6 7 7 9 11 13 13 12 11 14 19 22 22 20 19 17 18 19 18 16 15 14
17 15 13 9 9 10 9 8 11 11 9 10 10 12 14 13 14 11 5 8 10 5 6 7 3 6 11 10 10 10 9 10 11 10 8 9 10 11 11 10 7 5 5 6 8 8 7 9 10 11 12 13 13 13 11 11 11 11 12 11 10 7 5 4 4 5 6 8 10 12 12 11 9 11 16 20 22 21 19 17 20 23 21 18 16 16
15 12 11 11 11 13 11 9 10 10 9 9 6 8 12 12 14 13 9 12 15 10 8 6 3 6 13 11 9 10 11 12 12 11 10 11 13 14 14 10 7 7 8 8 9 9 9 11 11 10 11 11 10 11 11 10 11 11 11 10 9 7 6 6 6 6 7 8 10 12 11 9 9 11 15 18 20 22 19 17 21 24 23 19 17 18
11 9 13 13 9 8 9 7 8 9 9 9 7 7 9 10 11 11 10 13 14 13 12 8 3 9 14 12 10 10 12 14 13 12 13 14 15 15 13 10 8 8 9 9 10 11 12 13 12 11 13 13 13 13 12 12 11 11 11 11 11 10 9 8 8 8 8 8 9 9 9 8 9 11 15 18 20 21 21 19 21 25 26 22 19 20
9 8 14 13 7 6 7 5 8 10 10 10 10 10 8 8 9 9 11 13 12 13 15 10 7 14 17 14 13 12 12 15 15 16 18 18 17 17 14 12 10 10 11 12 12 13 14 14 13 13 15 15 14 13 13 12 11 10 11 11 12 11 11 11 11 11 10 8 8 9 11 11 11 11 15 18 21 22 23 22 22 25 27 26 22 21
9 8 11 11 12 12 10 9 11 13 13 12 12 10 9 8 7 7 9 11 11 13 14 10 10 17 20 16 16 15 15 16 18 20 21 20 20 19 17 15 14 14 14 14 14 14 14 14 12 11 12 12 12 11 10 10 10 11 13 14 15 16 16 15 14 13 12 11 11 11 13 14 14 14 15 18 21 24 25 24 25 27 29 29 26 23
8 9 10 9 10 8 6 9 12 11 10 10 10 9 8 6 4 5 5 5 9 12 10 10 13 18 21 20 18 18 18 18 19 20 21 21 20 19 17 17 15 14 15 15 15 15 14 14 13 13 12 12 11 11 12 13 14 15 15 16 17 17 16 16 15 15 14 14 13 13 14 16 17 17 17 17 20 25 27 28 28 29 30 31 28 26
7 7 8 9 9 6 4 5 6 7 7 6 5 4 5 3 1 2 2 3 7 8 7 11 18 21 22 22 20 18 19 19 19 20 21 21 19 18 17 16 15 14 14 14 14 14 14 13 13 12 13 13 14 15 17 18 19 17 15 14 14 14 14 15 16 16 15 14 14 14 15 16 17 18 19 18 19 24 27 29 30 30 31 31 29 29
13 9 9 10 8 5 5 3 4 6 6 3 3 5 6 7 5 5 4 4 6 7 7 10 18 22 21 22 21 19 18 18 18 19 20 19 18 17 17 16 15 14 14 14 14 14 14 15 15 16 17 17 18 18 19 19 19 19 17 15 14 14 15 15 15 15 15 14 15 15 15 16 17 18 20 20 20 22 26 29 31 32 32 33 33 32
17 13 12 13 11 8 9 9 9 8 6 7 10 11 11 10 8 7 6 7 9 9 9 11 17 20 20 20 19 18 17 17 17 18 19 19 19 18 17 17 17 15 15 15 15 15 16 16 17 18 19 19 19 19 19 19 18 18 17 16 15 15 15 15 15 16 16 16 16 16 16 16 16 17 19 21 21 22 25 28 30 33 34 35 35 35
14 15 14 14 12 11 11 12 12 11 10 11 13 12 11 11 10 9 9 9 11 11 12 16 20 21 20 20 19 18 18 17 17 18 19 20 21 20 19 19 18 17 16 17 17 17 17 17 18 20 20 21 21 21 20 19 19 19 19 19 18 18 17 17 17 16 16 17 18 18 18 18 17 17 18 20 21 23 24 26 28 31 32 33 35 36
11 13 15 15 12 12 12 10 8 8 7 7 12 15 13 12 12 12 11 11 11 12 14 18 21 21 21 20 20 19 19 19 19 20 21 21 22 21 20 20 19 18 18 18 19 20 20 21 22 22 22 22 22 22 22 22 21 21 22 22 21 20 20 19 18 17 17 18 19 20 20 20 19 18 19 21 22 23 24 25 25 27 27 29 32 30
8 10 15 15 14 16 17 15 14 11 5 6 13 17 14 13 13 12 13 13 13 14 16 18 20 21 20 19 18 18 18 18 19 20 21 21 21 21 20 19 19 19 19 20 22 23 24 25 25 25 25 25 24 24 24 24 24 24 24 24 24 23 23 22 21 20 19 19 20 21 21 21 20 20 21 22 23 24 25 25 25 26 25 26 28 24
9 10 14 15 14 19 22 18 10 4 5 8 15 17 15 13 11 11 13 16 17 18 19 19 20 21 20 18 17 16 15 15 16 17 18 19 20 19 19 19 20 20 20 21 22 23 23 23 24 25 25 24 23 23 24 25 25 26 28 28 26 26 26 25 25 23 22 21 22 22 22 22 22 23 24 24 24 25 25 25 25 26 26 25 25 22
10 11 13 14 12 15 18 14 6 4 7 11 14 15 14 14 12 10 13 17 19 20 20 20 20 20 20 18 17 16 15 14 14 14 15 16 17 17 18 18 19 19 19 20 20 20 20 20 19 20 21 21 20 22 24 24 24 25 27 27 26 26 28 30 31 29 26 24 24 24 24 24 25 26 26 26 26 25 25 24 25 25 25 25 23 20
12 13 13 13 11 11 13 11 8 4 6 12 15 16 16 17 16 14 14 17 20 21 20 19 19 19 19 18 17 17 16 15 15 15 15 16 16 17 17 17 18 18 19 19 20 20 20 20 20 21 21 21 21 22 23 24 24 24 25 26 26 26 27 30 32 30 27 24 24 25 26 27 28 28 28 27 26 25 25 24 24 24 24 23 22 21
14 14 14 13 12 13 12 9 5 2 5 13 19 19 20 19 17 16 14 15 19 21 20 19 19 19 19 18 18 17 17 17 16 16 17 17 17 18 18 19 19 20 21 21 21 21 22 22 22 23 23 23 23 23 23 24 25 26 26 26 25 25 25 26 27 27 26 25 26 28 28 29 30 29 27 26 26 25 24 23 23 23 23 23 22 22
19 18 18 16 14 16 15 9 6 4 7 15 21 22 21 20 18 16 12 14 19 21 20 20 19 19 19 18 18 18 18 18 18 17 18 18 19 19 20 20 21 22 22 23 23 24 24 24 24 24 25 25 25 24 24 24 24 25 26 26 25 24 24 25 26 27 28 28 29 30 30 29 29 28 26 25 25 25 24 24 23 23 23 23 23 23
18 19 20 19 17 17 17 12 9 8 10 16 22 23 21 19 18 14 9 11 20 22 20 20 19 18 18 18 18 19 19 19 19 19 19 19 20 21 22 22 23 23 24 25 26 26 27 27 27 26 26 26 26 26 26 26 25 26 26 27 28 27 27 27 27 27 28 28 29 30 29 27 28 30 29 27 27 27 27 26 26 26 26 26 26 26
10 13 16 17 16 16 17 13 8 7 11 16 21 22 21 18 17 15 12 12 17 20 21 21 19 18 19 18 18 19 19 19 20 20 21 21 21 22 23 24 25 26 27 28 29 30 30 29 29 28 27 27 27 28 29 29 29 29 29 29 30 30 30 30 29 28 28 29 30 31 30 27 27 30 31 30 30 31 31 31 30 29 29 28 28 28
4 5 7 10 10 11 13 12 6 5 9 15 19 21 20 17 15 17 17 14 14 17 20 21 20 19 19 18 18 19 19 20 21 22 23 24 25 26 27 28 29 29 30 31 32 33 33 32 32 31 30 29 29 30 31 32 32 32 33 33 32 32 32 32 31 31 30 30 30 32 33 31 30 30 31 32 33 34 35 35 35 34 33 31 29 28
3 3 4 6 6 6 9 9 5 4 8 14 17 19 19 17 15 16 16 14 14 16 19 19 19 19 18 18 18 18 18 20 21 23 24 26 27 28 29 31 32 33 34 34 35 36 36 36 36 35 34 34 34 34 35 36 36 36 36 37 36 36 36 36 35 35 34 33 32 32 33 33 33 33 33 33 34 36 37 38 38 37 36 33 31 30
2 2 3 4 4 4 6 6 6 6 10 14 16 17 17 16 15 14 13 13 13 14 15 15 14 14 15 15 16 17 19 20 22 24 25 27 28 30 31 33 34 36 37 38 39 40 41 41 41 41 40 40 40 41 42 43 43 43 42 41 40 40 41 40 39 38 38 37 35 34 34 34 34 35 36 36 37 37 37 37 36 36 35 34 33 32
1 1 2 2 2 3 3 4 6 7 9 11 12 13 13 11 10 9 9 10 10 10 10 10 11 12 13 15 16 18 21 23 25 27 29 31 33 34 36 37 38 39 41 42 42 44 45 46 46 47 47 46 46 47 48 49 50 50 49 48 46 45 45 45 44 43 41 40 38 37 36 36 36 37 38 38 39 38 36 33 33 33 34 34 34 33
2 3 2 1 2 3 3 4 5 6 7 8 8 9 8 6 6 6 6 7 8 10 12 13 14 16 17 19 21 23 25 27 29 31 33 34 35 36 37 38 39 40 41 42 42 43 44 45 46 47 47 47 46 46 47 47 48 49 49 48 48 48 48 48 48 48 46 44 42 40 39 39 39 39 39 39 38 35 33 31 31 31 32 33 33 34
3 2 1 1 2 2 3 4 4 4 4 4 3 4 4 5 7 8 9 10 11 13 14 16 18 19 21 23 24 26 28 29 31 32 33 34 35 35 36 37 37 38 39 40 41 41 42 43 44 44 45 45 44 44 44 45 45 45 46 45 45 45 45 46 47 48 49 48 46 44 43 42 41 41 41 41 39 36 34 33 33 33 33 34 35 36
1 0 0 2 2 1 2 4 3 3 3 2 2 4 5 7 8 9 10 12 13 15 17 19 20 22 23 25 26 27 28 29 31 32 32 33 34 34 35 36 37 37 38 39 40 41 41 42 43 43 44 44 43 43 44 44 44 44 45 45 45 45 45 44 45 46 47 48 49 48 46 45 44 44 43 42 41 39 37 36 35 35 35 34 34 35
3 2 1 2 1 1 2 3 2 2 3 4 4 5 6 8 9 11 13 14 16 17 19 20 22 23 24 25 26 27 28 29 30 31 32 32 33 34 35 36 37 37 38 38 39 40 41 42 42 43 43 43 43 44 43 43 43 43 43 44 45 45 46 45 44 45 45 46 47 49 49 48 47 46 45 44 43 42 41 40 39 38 37 35 34 34
4 3 3 3 3 2 2 3 3 3 4 5 6 8 9 10 12 13 14 15 16 18 19 20 22 23 24 25 26 27 27 28 28 30 31 32 32 34 35 36 36 37 37 38 38 39 39 40 41 41 42 42 43 44 44 43 43 43 43 44 45 45 46 46 45 45 45 45 45 46 48 50 50 49 48 47 45 44 44 43 43 41 39 36 36 36
5 4 4 4 4 3 3 3 4 5 7 7 8 10 11 12 13 15 15 16 17 18 19 21 22 23 24 24 25 26 26 27 28 29 30 30 31 32 33 34 36 37 37 37 38 38 38 39 39 40 41 41 42 43 44 44 44 43 43 43 44 45 45 46 46 47 46 46 45 44 45 47 50 51 51 49 45 42 41 41 41 40 38 36 37 37
Wind_Direction
208 217 220 226 228 228 233 234 223 215 224 238 248 241 247 286 283 305 332 329 319 315 287 238 215 201 207 218 226 234 231 202 186 182 180 184 198 201 187 179 178 171 163 154 159 176 186 188 192 197 200 204 203 199 195 193 193 188 184 186 179 169 166 162 159 162 163 159 93 59 48 42 35 29 25 22 20 15 6 345 297 252 243 243 244 245
211 222 225 229 234 229 226 220 212 213 230 245 250 240 244 319 311 320 343 334 325 328 301 234 211 199 207 216 221 228 219 194 183 177 174 180 195 201 190 183 186 184 176 162 166 178 186 189 192 196 201 204 203 199 195 194 197 196 189 183 178 171 171 174 176 180 188 200 247 26 36 35 29 27 24 20 19 17 14 4 341 294 254 244 240 240
211 223 219 209 204 203 202 199 202 214 227 233 231 232 260 335 322 326 1 346 335 346 359 213 202 198 204 210 214 218 211 192 182 174 173 181 196 203 198 193 195 194 188 175 175 180 185 190 192 197 201 201 200 198 193 197 203 198 189 185 183 178 180 187 193 201 213 233 271 322 17 21 17 18 18 18 17 14 11 5 354 337 302 265 238 234
212 212 186 174 180 189 196 203 213 222 224 223 224 233 282 327 316 312 333 341 342 6 51 124 164 180 192 203 209 215 219 198 186 184 184 189 200 210 207 200 197 193 191 183 176 175 180 186 187 194 200 203 206 210 209 209 208 199 192 191 190 186 190 197 204 214 226 244 272 301 344 360 360 0 4 10 14 13 10 4 356 343 325 309 279 242
205 173 158 166 177 198 208 216 219 221 218 217 224 235 298 327 304 297 322 340 354 27 77 128 131 148 170 191 202 208 221 213 200 195 193 196 206 214 208 200 195 188 186 180 172 175 176 172 176 190 203 209 215 222 226 222 210 201 196 196 198 200 202 205 213 222 233 250 273 294 310 327 336 341 349 357 5 10 10 7 1 350 335 323 310 290
193 166 176 171 320 261 232 218 211 217 220 219 225 216 172 341 314 296 326 346 236 123 139 154 130 136 162 177 197 205 214 219 217 210 202 200 209 216 209 201 196 187 185 180 174 177 174 163 165 184 200 210 218 225 229 223 208 202 202 203 206 213 216 217 222 232 244 257 275 289 294 303 312 323 338 348 357 3 5 4 2 357 346 330 318 310
196 188 208 213 340 311 237 215 208 217 223 223 223 172 162 297 310 284 293 326 246 158 144 162 163 152 158 161 177 194 205 216 223 223 214 207 210 215 210 204 199 191 187 184 180 179 176 167 159 168 183 195 209 220 224 218 209 206 208 210 213 219 226 229 231 240 252 262 273 283 287 290 301 314 326 338 350 357 360 359 357 355 349 334 319 310
201 200 205 235 317 329 217 208 204 210 215 219 215 180 201 294 303 255 239 298 246 175 162 161 151 149 153 152 155 169 187 208 219 220 219 214 213 214 209 206 203 195 191 188 184 184 181 170 158 158 170 184 203 215 218 220 218 215 213 214 217 222 231 238 241 247 255 264 272 280 287 289 296 305 313 326 339 346 351 352 351 350 345 334 316 301
209 213 220 253 301 351 201 205 202 204 211 219 212 210 254 286 272 221 206 227 223 194 206 179 156 153 166 165 156 162 178 196 216 215 217 216 214 212 209 208 206 200 197 194 191 192 186 174 164 161 169 181 197 207 213 219 222 220 219 220 223 229 240 247 251 256 259 266 271 276 283 287 287 288 295 309 324 333 339 342 344 346 344 337 320 294
230 233 245 263 273 300 209 203 199 199 210 220 218 232 261 264 231 191 185 202 198 202 224 189 177 180 185 180 171 166 169 174 200 210 216 216 212 209 207 208 208 204 200 198 196 197 192 184 175 167 170 180 188 197 206 211 214 218 222 227 232 239 247 253 258 261 263 267 270 273 277 282 284 282 283 294 307 317 323 331 336 338 340 336 328 309
244 249 256 256 251 295 280 206 196 197 208 220 230 244 251 237 217 199 199 198 177 224 229 202 201 205 195 180 173 169 169 170 184 198 210 220 214 208 205 205 208 206 203 201 201 201 197 192 187 176 174 181 188 194 201 205 209 214 221 227 234 241 247 251 255 258 264 268 270 274 277 280 283 281 278 281 291 303 309 317 326 332 333 330 327 317
248 250 252 242 240 276 278 220 198 198 206 217 234 232 214 199 196 196 203 185 170 269 208 190 201 206 205 173 160 163 174 181 190 197 207 223 223 213 206 204 207 209 207 204 203 205 201 196 192 183 177 185 193 197 202 205 210 216 222 229 235 241 246 250 251 252 257 262 266 270 272 274 275 273 271 270 274 287 303 311 316 322 324 324 322 313
247 244 241 235 236 252 260 228 205 202 210 220 226 212 191 140 146 189 227 183 204 235 181 178 184 202 224 217 191 185 188 200 215 217 218 225 231 226 213 207 208 210 210 210 209 209 206 202 201 195 187 191 198 200 204 209 216 225 230 235 239 242 245 248 249 252 255 259 260 261 263 264 264 263 261 260 261 269 290 306 310 312 314 319 317 302
251 249 240 233 234 238 240 228 209 208 215 222 222 211 193 122 94 227 257 9 272 215 177 177 181 208 232 236 236 236 236 241 245 244 240 234 234 234 221 210 208 209 211 213 213 210 207 205 207 205 203 204 205 206 210 217 227 237 242 244 243 242 245 250 253 256 259 260 258 257 258 256 256 258 261 263 260 251 265 289 297 300 303 310 309 286
245 254 240 230 231 231 230 229 223 220 221 225 224 218 212 188 154 186 213 188 179 177 173 176 185 223 213 216 234 239 245 250 250 252 250 242 231 230 228 215 208 209 212 214 214 209 203 202 204 206 208 211 212 213 219 228 235 243 248 247 245 244 245 249 252 254 254 255 259 267 268 264 260 255 258 269 269 249 248 269 275 281 289 296 300 267
233 248 236 222 223 225 228 228 227 225 221 221 218 217 220 210 187 167 175 177 153 137 162 188 208 227 208 215 218 222 245 250 248 247 240 234 221 219 229 219 207 208 213 215 213 206 199 197 198 200 205 213 218 220 224 231 236 243 249 248 247 248 248 248 252 261 265 266 271 279 281 280 276 261 256 266 271 254 245 251 251 253 258 254 232 172
223 232 219 211 215 220 229 227 221 222 220 212 210 214 217 212 201 175 139 140 135 131 182 202 219 217 203 216 207 201 234 236 230 228 219 216 211 211 222 216 207 209 216 215 207 198 196 194 192 193 200 209 214 219 223 230 239 247 254 253 249 252 261 269 276 282 286 289 285 280 278 282 286 274 259 257 258 250 239 231 228 222 213 201 161 140
232 227 207 205 210 210 217 222 219 220 221 213 207 212 209 201 200 181 132 89 99 126 211 209 225 205 183 193 198 193 192 190 197 197 195 201 203 209 221 218 211 213 220 220 209 188 185 187 188 185 188 204 213 222 229 235 245 252 261 266 267 272 283 287 284 281 281 282 278 276 276 275 275 268 250 241 242 238 226 216 208 198 191 179 154 140
240 237 209 202 212 206 203 210 209 208 213 214 212 209 202 192 188 176 151 133 148 151 240 232 239 208 193 185 186 190 179 167 176 174 177 200 208 214 227 228 223 223 226 227 224 200 190 190 189 176 188 223 233 236 240 243 249 254 260 269 279 291 295 283 274 267 267 272 272 273 275 274 270 253 226 226 233 231 226 221 212 199 186 174 161 149
229 232 217 199 205 197 191 199 196 190 198 206 210 206 202 202 192 183 175 168 166 161 196 215 266 218 204 198 192 200 198 187 194 213 234 253 246 227 236 241 241 242 243 237 242 241 212 199 191 183 207 235 237 232 236 242 248 253 257 265 276 286 282 266 264 262 264 269 273 275 275 275 273 250 221 222 229 228 228 229 225 212 194 180 172 163
220 223 222 202 199 191 185 197 194 184 191 198 201 200 201 203 186 176 179 174 159 152 160 170 283 210 196 201 206 212 215 208 212 231 245 238 222 230 248 239 227 233 256 241 215 204 185 173 196 213 227 236 227 223 231 239 245 251 259 268 276 278 265 246 248 256 266 271 275 282 282 279 273 251 225 220 224 226 227 229 228 219 203 192 184 178
213 218 218 203 193 185 177 183 181 178 190 195 196 196 198 202 186 167 172 190 172 163 169 164 204 197 181 193 205 205 207 207 202 210 224 221 224 244 242 212 193 198 235 226 203 188 181 197 220 232 237 234 225 223 228 234 242 251 259 267 274 277 267 244 235 241 259 273 282 288 290 286 273 248 229 223 225 229 230 229 229 223 215 209 201 195
206 211 210 189 167 164 166 174 167 166 187 192 191 198 200 204 198 183 180 188 176 164 169 159 155 189 180 180 190 187 187 192 194 198 209 218 225 226 210 191 188 208 210 191 183 183 200 219 228 234 232 222 214 216 222 227 233 241 250 258 264 268 265 253 242 244 258 275 285 287 287 284 268 245 235 232 233 237 236 231 228 226 226 225 218 210
196 198 182 150 137 147 159 173 165 162 188 196 190 196 196 201 203 201 205 195 180 168 163 151 131 187 184 179 179 179 181 188 198 204 206 212 211 200 194 197 209 213 199 184 182 186 198 207 208 210 213 213 217 222 225 226 227 232 240 247 253 257 263 267 265 263 267 275 278 278 279 273 256 242 240 240 241 242 241 232 227 229 232 239 237 226
192 189 163 139 120 138 159 179 178 170 188 201 196 192 195 200 200 203 204 191 183 181 179 172 169 185 184 180 171 167 173 181 190 195 194 197 198 196 203 214 212 204 197 190 189 189 190 192 196 205 217 230 240 238 234 232 231 233 239 247 256 262 267 272 275 275 274 274 269 263 263 263 256 245 241 242 242 242 241 235 231 234 237 243 251 241
197 187 170 159 152 165 171 187 190 182 183 188 186 182 185 193 194 195 190 183 183 190 188 187 182 179 182 183 174 165 165 169 174 182 187 192 198 204 212 216 210 205 201 198 201 207 208 213 223 230 231 233 234 230 230 233 234 239 250 258 264 270 276 277 277 275 271 268 260 253 254 256 257 250 241 238 238 238 238 234 233 237 239 243 252 248
202 180 170 179 189 192 194 190 183 183 180 173 172 172 172 180 188 185 182 187 193 192 192 200 191 179 179 181 180 177 171 164 169 180 188 197 206 209 210 211 211 209 205 203 206 210 212 212 212 211 208 209 212 215 221 230 241 257 269 272 273 279 282 279 274 271 268 266 261 256 255 252 249 248 243 237 234 234 235 233 231 234 238 242 247 244
181 148 134 148 168 179 190 182 178 181 174 159 157 161 161 162 178 183 176 192 198 192 198 207 192 181 180 179 180 182 178 170 171 181 191 198 206 210 209 209 209 205 202 201 200 200 199 197 199 202 206 211 218 227 235 246 257 265 271 276 279 280 278 272 269 269 268 266 263 258 253 247 243 243 244 239 232 231 233 234 234 235 238 243 246 240
184 150 140 144 139 129 132 144 168 186 171 148 143 155 171 170 335 286 236 223 207 206 224 213 191 183 180 177 176 179 178 176 177 184 193 200 205 209 211 211 209 205 205 206 206 206 208 211 219 229 237 244 249 254 259 263 264 263 262 268 272 269 266 268 270 270 267 264 261 256 248 242 240 239 240 238 231 230 232 234 236 238 243 247 249 245
219 207 209 208 193 200 209 165 154 167 150 117 3 334 283 255 285 300 263 236 225 225 244 223 196 185 180 176 177 179 179 180 182 186 194 200 205 208 210 211 213 214 218 221 222 224 229 235 243 252 258 261 264 265 267 266 263 259 255 254 255 255 258 262 264 265 263 260 256 251 243 238 237 237 238 238 234 232 234 236 238 240 244 248 252 252
219 207 211 214 198 186 198 201 209 221 239 276 295 306 291 264 260 267 248 236 233 228 229 218 200 192 186 182 184 186 186 187 189 192 197 201 204 205 207 210 214 218 223 226 228 234 239 244 250 256 260 263 264 265 265 264 262 257 250 244 243 245 248 251 254 257 258 256 252 248 243 239 238 237 238 239 240 238 238 239 240 241 244 248 251 252
208 200 202 210 197 181 200 223 238 244 248 255 258 259 260 255 243 235 232 233 234 230 221 209 200 196 195 194 197 199 197 196 198 199 201 203 205 207 210 214 217 221 226 231 235 239 243 246 249 252 255 257 259 261 262 262 261 258 254 250 246 243 242 244 247 251 251 250 248 245 243 242 241 238 236 237 241 243 242 241 241 242 244 246 248 249
202 204 203 205 195 183 195 206 194 180 181 204 213 215 223 232 230 225 222 222 222 221 217 211 205 202 201 201 203 205 204 204 206 206 206 207 210 213 216 218 222 227 232 237 242 246 249 251 251 250 252 254 256 259 261 264 265 263 260 258 253 248 245 243 242 242 242 243 244 243 242 243 242 238 234 234 236 239 240 241 242 243 245 247 250 254
194 200 197 194 178 163 164 159 150 153 165 189 193 197 203 210 215 218 214 209 208 210 213 215 212 209 207 204 205 207 208 208 211 212 212 213 215 219 221 223 229 235 239 242 245 248 250 252 254 256 256 255 258 261 265 270 272 270 266 263 262 260 257 252 245 239 235 235 238 239 241 243 243 239 233 231 234 237 238 240 242 244 246 248 253 259
200 194 192 191 175 163 163 158 149 178 221 187 181 191 199 199 204 216 214 206 205 205 207 211 211 209 208 205 204 206 209 210 213 216 217 219 222 225 229 233 238 240 242 244 246 249 251 253 257 261 262 262 264 269 274 277 280 280 274 268 265 267 268 267 262 250 237 232 233 235 237 239 238 236 234 233 234 236 238 238 240 242 244 245 247 250
207 199 197 191 176 167 171 170 172 225 217 190 184 190 192 185 187 203 206 202 202 204 203 205 207 206 205 204 204 207 211 214 217 220 225 229 232 236 239 242 244 245 246 247 251 257 262 264 266 270 273 276 279 280 282 282 282 283 278 271 268 270 273 277 274 259 239 230 232 234 236 235 233 231 230 231 232 235 237 237 238 239 241 242 243 245
207 203 200 194 184 178 176 175 178 193 196 190 188 188 191 190 191 199 202 199 201 203 202 204 207 208 209 210 212 214 218 222 225 227 232 236 240 242 244 245 246 248 249 249 252 256 260 264 268 272 276 279 280 280 280 281 281 280 278 276 276 276 275 274 269 254 237 229 232 237 238 235 230 227 227 229 231 232 235 236 237 239 241 243 244 245
224 220 214 210 205 195 180 159 150 169 205 197 192 193 199 200 199 202 204 203 203 204 205 208 212 214 215 218 220 224 228 232 234 237 240 243 246 247 249 251 252 252 253 253 254 255 258 262 265 269 270 271 271 272 273 275 278 279 278 278 278 276 274 271 266 258 251 242 235 235 236 234 230 227 227 228 229 230 232 234 236 238 240 242 244 245
235 232 225 223 221 209 198 184 179 200 203 195 194 197 200 199 197 198 204 211 210 209 209 209 211 215 219 221 225 229 234 237 240 244 247 250 253 254 256 259 259 260 260 260 260 261 262 264 266 267 268 268 267 268 269 270 272 275 276 276 273 270 269 270 269 268 266 257 243 236 235 234 232 231 230 229 229 229 231 232 233 235 238 240 242 243
231 232 227 224 224 217 208 202 203 210 202 194 197 200 200 198 196 193 199 215 212 208 208 208 207 212 217 220 225 229 233 237 241 244 248 251 255 258 260 262 264 265 266 266 267 267 266 266 266 265 265 267 268 268 268 267 267 267 268 268 268 267 268 270 270 269 270 267 261 255 250 243 236 233 233 234 234 234 233 232 231 232 235 238 241 242
212 219 218 217 219 215 207 200 197 206 204 198 200 202 201 199 199 200 211 219 210 206 207 206 205 210 215 219 224 228 232 237 241 245 249 251 255 258 261 264 266 268 269 270 270 270 269 267 266 264 263 265 266 268 268 267 266 265 266 266 268 269 270 270 269 268 267 268 269 269 266 258 245 236 235 237 239 239 239 239 237 235 235 236 239 241
169 183 197 204 206 204 201 193 180 193 204 201 201 203 201 198 202 210 217 219 208 203 205 206 208 213 218 223 228 233 237 242 245 249 252 255 258 260 261 263 264 265 267 267 268 268 268 266 265 264 262 262 263 265 267 268 268 267 268 268 269 270 270 269 269 268 266 266 267 268 268 265 257 249 244 243 242 241 241 242 242 241 239 240 241 242
148 139 150 172 180 186 188 181 173 200 207 200 200 202 200 203 211 215 215 214 209 204 205 208 212 217 223 230 237 244 251 254 257 259 261 263 265 266 267 267 267 267 267 267 268 268 268 267 265 264 262 262 262 263 264 265 266 266 266 268 269 269 269 268 267 266 265 265 264 264 265 265 263 257 250 246 244 244 243 242 242 242 241 241 243 243
113 147 151 160 173 182 183 179 183 197 198 196 199 202 203 208 217 219 215 212 209 206 207 211 218 225 233 240 248 255 260 264 268 270 271 273 274 274 275 274 274 274 273 272 272 272 271 271 270 268 267 266 265 265 265 266 265 264 264 263 263 263 264 264 264 263 263 262 261 260 260 260 260 256 250 245 242 242 242 241 240 240 240 242 244 245
81 146 162 177 191 190 194 191 185 185 184 187 193 198 198 201 205 208 210 210 213 221 232 241 251 259 264 267 271 273 274 275 276 278 278 279 279 279 279 279 278 277 276 275 275 274 274 274 273 272 271 270 269 268 268 268 268 267 265 263 260 258 258 258 258 258 258 257 257 256 254 254 254 254 249 242 237 237 240 244 243 241 241 242 243 245
140 149 152 169 175 167 167 170 170 175 182 186 191 199 206 213 221 233 249 258 267 276 281 285 286 287 287 287 287 286 285 285 285 285 284 284 283 283 282 281 280 279 278 277 276 275 275 274 274 273 272 271 270 270 269 269 269 268 267 265 263 260 257 255 253 252 252 251 251 251 250 249 250 251 249 245 242 241 245 249 250 250 250 250 250 248
143 138 115 135 158 156 157 163 168 181 194 203 221 241 262 282 289 294 299 297 295 295 294 294 293 291 290 289 288 288 287 287 287 287 286 285 284 283 282 281 280 279 279 279 278 278 277 275 274 274 273 272 271 270 269 268 267 267 267 266 264 262 259 256 253 250 247 246 245 245 246 247 247 248 249 250 250 249 249 250 251 254 257 259 259 256
181 227 85 133 143 143 174 182 186 189 193 216 260 274 284 291 292 292 291 287 287 287 285 285 285 285 284 284 283 283 283 284 284 284 284 284 284 284 284 283 283 282 281 281 280 280 279 278 277 276 275 274 273 271 269 268 267 266 265 264 263 262 260 257 255 252 248 244 241 240 241 242 244 245 246 248 249 248 247 248 250 253 256 259 262 261
221 251 253 216 215 204 192 205 223 218 213 233 252 256 262 267 269 271 272 273 274 275 275 276 277 278 279 280 280 282 282 283 284 285 286 287 288 288 288 287 286 286 285 284 283 282 281 280 279 278 277 276 274 273 271 269 267 266 264 262 262 261 259 257 255 253 251 248 244 240 239 238 238 239 240 242 243 244 246 247 247 248 250 254 258 261
234 244 240 230 231 229 222 235 259 262 261 270 276 276 276 275 273 273 273 273 275 275 277 278 279 281 283 285 286 287 287 288 288 289 290 290 291 291 291 290 290 289 288 287 285 283 282 282 281 280 278 277 276 274 273 270 268 266 264 262 261 259 259 258 255 253 251 250 247 244 241 239 237 236 236 236 235 236 239 242 244 245 245 246 251 258
233 226 215 208 209 217 231 246 269 281 285 286 285 285 286 286 286 286 287 287 287 286 286 286 287 289 291 292 292 292 292 292 292 291 291 293 294 295 296 295 294 292 290 288 286 284 283 283 282 281 280 278 277 276 274 273 271 268 266 264 262 260 258 257 255 254 251 250 248 246 243 242 241 240 240 238 235 232 231 232 234 239 241 241 244 248
Height
3078 3079 3079 3080 3082 3083 3084 3085 3086 3087 3088 3089 3090 3090 3091 3091 3091 3092 3092 3091 3090 3088 3088 3088 3090 3092 3094 3096 3097 3099 3100 3101 3102 3103 3104 3106 3109 3111 3113 3115 3116 3117 3117 3118 3119 3120 3121 3122 3123 3125 3126 3128 3130 3132 3134 3135 3136 3138 3139 3140 3142 3143 3144 3144 3144 3145 3145 3145 3145 3145 3144 3143 3142 3141 3140 3139 3138 3137 3136 3135 3134 3134 3135 3136 3137 3138
3077 3077 3078 3080 3081 3082 3083 3084 3085 3086 3087 3088 3089 3089 3090 3090 3090 3090 3090 3090 3089 3087 3086 3087 3088 3091 3093 3095 3096 3098 3098 3099 3100 3102 3104 3106 3108 3111 3113 3115 3116 3116 3117 3118 3119 3120 3120 3121 3123 3124 3126 3128 3130 3132 3134 3135 3136 3138 3139 3140 3142 3143 3143 3144 3144 3144 3145 3145 3144 3144 3143 3143 3142 3141 3140 3139 3138 3137 3136 3135 3134 3133 3134 3134 3135 3136
3076 3077 3078 3080 3080 3081 3082 3083 3084 3085 3086 3087 3088 3088 3089 3089 3089 3089 3089 3089 3088 3087 3086 3086 3087 3090 3092 3094 3096 3097 3098 3099 3100 3102 3104 3105 3108 3110 3112 3114 3115 3115 3116 3117 3118 3119 3120 3121 3122 3124 3125 3128 3130 3132 3134 3135 3136 3137 3139 3140 3141 3141 3142 3143 3144 3144 3144 3144 3144 3143 3143 3142 3142 3141 3141 3140 3139 3138 3137 3135 3134 3133 3133 3133 3134 3135
3076 3076 3078 3079 3080 3080 3081 3082 3083 3084 3085 3086 3087 3087 3088 3088 3088 3088 3089 3089 3088 3087 3086 3086 3087 3089 3091 3093 3094 3096 3097 3099 3100 3101 3103 3105 3107 3110 3112 3113 3114 3115 3116 3117 3118 3119 3120 3121 3122 3123 3125 3127 3129 3131 3133 3134 3135 3137 3138 3139 3140 3140 3141 3142 3143 3143 3144 3143 3143 3143 3142 3142 3142 3142 3141 3140 3139 3138 3137 3136 3135 3133 3132 3132 3133 3134
3075 3076 3078 3078 3079 3080 3081 3081 3082 3083 3084 3085 3086 3086 3087 3087 3087 3088 3088 3088 3088 3087 3087 3086 3088 3089 3090 3092 3093 3095 3096 3098 3099 3101 3103 3104 3106 3109 3111 3113 3113 3114 3115 3116 3118 3119 3120 3121 3122 3123 3125 3127 3128 3130 3132 3134 3135 3136 3137 3138 3139 3139 3140 3141 3142 3143 3143 3143 3143 3143 3142 3142 3142 3142 3141 3141 3140 3138 3137 3136 3135 3134 3133 3132 3132 3133
3075 3076 3077 3077 3078 3079 3079 3080 3081 3082 3083 3084 3084 3085 3086 3086 3087 3087 3087 3087 3088 3088 3087 3087 3088 3089 3090 3091 3093 3094 3095 3097 3098 3100 3102 3103 3105 3108 3110 3111 3112 3113 3114 3115 3117 3118 3119 3121 3122 3123 3124 3126 3128 3129 3131 3133 3134 3135 3136 3137 3137 3138 3139 3140 3141 3142 3142 3142 3142 3143 3143 3142 3142 3142 3141 3141 3140 3139 3138 3137 3136 3135 3133 3132 3132 3132
3074 3075 3076 3076 3077 3077 3078 3079 3080 3081 3082 3083 3083 3084 3085 3086 3086 3086 3086 3087 3087 3087 3088 3087 3088 3089 3090 3091 3093 3094 3095 3096 3097 3099 3101 3102 3104 3106 3108 3110 3111 3112 3113 3114 3116 3117 3119 3120 3121 3123 3124 3125 3127 3129 3130 3131 3133 3134 3135 3135 3136 3137 3138 3140 3141 3141 3142 3142 3142 3143 3142 3142 3142 3141 3141 3141 3141 3140 3138 3137 3136 3135 3134 3133 3132 3131
3073 3074 3075 3075 3076 3076 3077 3078 3079 3080 3081 3081 3082 3083 3084 3085 3085 3085 3086 3086 3086 3087 3087 3087 3087 3089 3091 3092 3093 3094 3094 3096 3096 3097 3099 3101 3103 3105 3107 3108 3110 3111 3113 3113 3115 3116 3118 3119 3121 3122 3123 3125 3126 3128 3129 3130 3132 3133 3133 3134 3135 3137 3138 3139 3140 3141 3141 3142 3142 3142 3142 3142 3141 3141 3141 3141 3141 3140 3139 3138 3137 3136 3134 3133 3132 3131
3072 3073 3074 3074 3075 3075 3076 3077 3078 3079 3080 3080 3081 3083 3083 3084 3084 3085 3085 3085 3086 3086 3086 3087 3087 3088 3091 3092 3092 3094 3094 3095 3096 3097 3098 3099 3101 3103 3105 3107 3109 3110 3112 3113 3114 3116 3117 3119 3120 3121 3123 3124 3125 3127 3128 3129 3130 3131 3132 3133 3135 3136 3138 3139 3140 3140 3141 3141 3141 3141 3141 3141 3141 3140 3140 3140 3140 3140 3139 3138 3137 3136 3134 3133 3133 3132
3071 3072 3072 3073 3073 3074 3075 3075 3077 3078 3079 3079 3081 3082 3082 3083 3084 3084 3085 3085 3085 3086 3086 3086 3087 3088 3090 3091 3092 3093 3094 3095 3096 3096 3097 3098 3099 3101 3103 3106 3108 3109 3110 3111 3113 3115 3117 3118 3119 3120 3122 3123 3124 3125 3126 3128 3129 3130 3131 3133 3134 3136 3137 3138 3139 3140 3140 3140 3140 3140 3140 3140 3140 3139 3139 3140 3140 3140 3139 3138 3137 3135 3134 3133 3132 3132
3070 3070 3071 3072 3072 3073 3073 3074 3075 3077 3078 3079 3080 3080 3081 3082 3083 3083 3084 3085 3086 3086 3086 3086 3086 3087 3089 3090 3091 3092 3093 3094 3095 3096 3097 3097 3098 3100 3101 3104 3106 3107 3108 3110 3111 3113 3115 3117 3118 3118 3120 3122 3123 3123 3125 3126 3127 3128 3130 3131 3133 3135 3136 3137 3138 3138 3139 3139 3139 3139 3139 3139 3139 3138 3138 3139 3139 3139 3139 3138 3137 3136 3135 3133 3132 3131
3068 3068 3069 3070 3071 3071 3072 3073 3074 3075 3076 3078 3078 3079 3080 3081 3082 3083 3083 3084 3086 3087 3086 3085 3086 3087 3088 3090 3090 3091 3092 3093 3094 3095 3096 3096 3097 3099 3100 3102 3104 3106 3107 3108 3110 3112 3114 3115 3116 3117 3118 3120 3121 3122 3123 3124 3126 3127 3128 3129 3131 3133 3134 3134 3135 3136 3137 3138 3138 3138 3138 3138 3137 3137 3137 3137 3137 3138 3138 3137 3136 3136 3135 3134 3132 3131
3066 3067 3068 3069 3069 3070 3071 3072 3073 3074 3075 3076 3077 3078 3079 3081 3083 3083 3084 3085 3085 3085 3085 3085 3086 3086 3086 3087 3089 3090 3091 3092 3092 3093 3094 3095 3096 3097 3099 3101 3102 3104 3105 3107 3109 3111 3113 3114 3115 3116 3117 3118 3120 3121 3122 3123 3124 3125 3126 3128 3130 3130 3130 3131 3133 3134 3135 3136 3136 3136 3137 3137 3136 3135 3135 3136 3136 3136 3136 3136 3136 3135 3135 3134 3133 3132
3064 3065 3066 3067 3068 3068 3069 3070 3071 3073 3074 3075 3075 3076 3078 3080 3083 3085 3087 3087 3085 3084 3084 3085 3085 3084 3084 3085 3086 3088 3089 3090 3090 3091 3093 3094 3095 3095 3096 3098 3100 3102 3103 3105 3107 3109 3111 3113 3114 3115 3116 3117 3118 3119 3120 3121 3123 3124 3125 3126 3126 3126 3127 3129 3131 3133 3133 3134 3134 3134 3135 3135 3135 3135 3134 3135 3135 3135 3135 3135 3135 3135 3134 3134 3133 3132
3064 3063 3064 3065 3066 3067 3068 3069 3070 3071 3072 3073 3074 3075 3076 3077 3079 3082 3084 3083 3083 3083 3083 3084 3084 3083 3083 3084 3085 3086 3087 3088 3089 3090 3091 3092 3093 3093 3094 3095 3097 3100 3101 3102 3104 3105 3108 3110 3111 3113 3115 3116 3117 3118 3119 3120 3121 3123 3123 3121 3121 3123 3125 3128 3129 3130 3131 3131 3132 3133 3133 3133 3133 3134 3133 3133 3135 3135 3135 3135 3135 3135 3134 3134 3133 3133
3063 3062 3062 3063 3064 3065 3067 3067 3068 3070 3070 3071 3072 3073 3074 3075 3076 3078 3080 3080 3080 3082 3083 3084 3083 3082 3083 3084 3085 3086 3087 3088 3088 3089 3089 3090 3090 3091 3092 3093 3095 3098 3099 3100 3101 3102 3105 3107 3109 3111 3112 3114 3115 3117 3118 3119 3120 3120 3118 3116 3118 3120 3122 3125 3128 3128 3129 3130 3131 3131 3131 3130 3130 3130 3130 3132 3134 3135 3135 3135 3135 3135 3134 3134 3133 3133
3061 3061 3061 3062 3062 3064 3065 3066 3067 3068 3068 3070 3070 3071 3072 3074 3074 3076 3078 3079 3080 3081 3082 3083 3082 3082 3083 3083 3084 3086 3086 3087 3087 3087 3087 3088 3088 3089 3090 3091 3093 3094 3094 3094 3095 3098 3101 3105 3107 3109 3111 3113 3114 3115 3116 3117 3118 3117 3112 3110 3114 3119 3122 3125 3127 3127 3127 3128 3129 3128 3128 3127 3126 3126 3127 3130 3132 3133 3133 3134 3134 3135 3134 3134 3133 3133
3060 3060 3060 3061 3061 3062 3063 3064 3065 3066 3067 3068 3068 3069 3071 3072 3073 3074 3077 3081 3082 3082 3082 3082 3081 3082 3083 3083 3084 3085 3086 3086 3086 3086 3086 3087 3087 3088 3089 3090 3091 3091 3091 3092 3095 3096 3099 3103 3106 3108 3110 3113 3114 3115 3115 3116 3116 3114 3109 3106 3112 3121 3125 3125 3125 3125 3124 3124 3125 3125 3125 3124 3124 3124 3125 3127 3130 3130 3131 3132 3133 3134 3134 3134 3133 3133
3060 3060 3060 3060 3060 3061 3062 3063 3063 3064 3065 3066 3067 3068 3069 3070 3071 3072 3075 3078 3081 3082 3083 3082 3081 3081 3082 3082 3083 3084 3085 3085 3086 3086 3086 3087 3088 3088 3089 3089 3089 3090 3091 3095 3099 3100 3100 3102 3106 3108 3111 3112 3113 3114 3114 3115 3115 3114 3112 3109 3113 3121 3124 3122 3122 3122 3122 3122 3122 3122 3123 3122 3122 3122 3123 3126 3127 3128 3129 3131 3132 3133 3134 3133 3133 3133
3059 3059 3059 3059 3060 3060 3060 3061 3062 3062 3063 3065 3066 3067 3067 3068 3069 3070 3072 3073 3075 3081 3083 3081 3081 3080 3080 3082 3082 3083 3084 3085 3085 3086 3087 3088 3089 3089 3090 3091 3091 3093 3095 3097 3101 3102 3102 3104 3106 3108 3110 3112 3113 3113 3114 3114 3114 3113 3112 3112 3115 3119 3121 3120 3120 3120 3120 3120 3120 3120 3121 3120 3120 3120 3122 3124 3125 3127 3129 3130 3131 3132 3133 3133 3133 3133
3057 3058 3058 3059 3059 3059 3060 3060 3061 3061 3062 3063 3063 3065 3066 3067 3068 3069 3071 3071 3072 3076 3080 3080 3080 3079 3078 3080 3081 3082 3083 3084 3085 3086 3087 3088 3089 3090 3091 3092 3094 3096 3098 3099 3101 3102 3103 3104 3105 3107 3109 3110 3111 3112 3112 3112 3113 3112 3112 3112 3114 3117 3119 3119 3119 3118 3118 3118 3118 3118 3118 3119 3119 3119 3120 3121 3123 3125 3127 3128 3130 3131 3132 3132 3133 3133
3055 3056 3057 3058 3058 3058 3059 3059 3059 3060 3061 3061 3062 3063 3064 3065 3066 3068 3070 3071 3071 3072 3075 3077 3077 3077 3077 3079 3080 3081 3082 3083 3084 3085 3086 3088 3089 3090 3091 3092 3094 3096 3097 3099 3100 3101 3102 3103 3105 3106 3108 3108 3109 3110 3111 3111 3112 3112 3111 3112 3113 3115 3117 3118 3117 3117 3117 3117 3116 3116 3116 3117 3117 3117 3118 3120 3122 3123 3125 3127 3129 3130 3131 3132 3132 3132
3053 3054 3056 3057 3057 3058 3058 3059 3059 3059 3060 3061 3061 3062 3063 3064 3065 3066 3067 3069 3069 3071 3072 3073 3074 3075 3077 3078 3079 3080 3081 3082 3083 3085 3086 3088 3089 3090 3091 3092 3094 3095 3097 3098 3099 3100 3101 3103 3104 3106 3107 3107 3108 3109 3110 3110 3111 3111 3111 3111 3112 3113 3115 3115 3116 3116 3115 3115 3115 3115 3115 3115 3115 3116 3117 3119 3120 3122 3124 3126 3128 3129 3130 3131 3131 3132
3051 3053 3054 3056 3057 3057 3058 3059 3059 3059 3059 3060 3060 3062 3063 3063 3064 3065 3066 3066 3068 3069 3070 3072 3074 3075 3076 3077 3078 3079 3080 3081 3083 3084 3086 3087 3088 3089 3090 3092 3094 3095 3096 3097 3098 3100 3101 3102 3104 3105 3106 3107 3108 3108 3109 3109 3110 3110 3110 3110 3111 3112 3113 3113 3114 3114 3114 3115 3114 3114 3114 3114 3114 3114 3116 3117 3119 3120 3122 3125 3126 3127 3129 3130 3131 3131
3050 3051 3052 3055 3057 3059 3059 3058 3058 3058 3058 3059 3059 3061 3062 3063 3063 3064 3065 3065 3066 3068 3069 3070 3072 3073 3074 3076 3077 3078 3079 3080 3082 3084 3085 3087 3088 3089 3090 3092 3094 3095 3096 3097 3098 3099 3100 3102 3103 3104 3105 3106 3107 3108 3109 3109 3109 3109 3109 3109 3109 3110 3111 3112 3112 3113 3113 3114 3114 3114 3113 3113 3113 3113 3114 3116 3117 3119 3121 3123 3124 3126 3127 3128 3129 3130
3049 3050 3051 3052 3054 3056 3057 3056 3056 3057 3058 3058 3059 3061 3062 3063 3063 3063 3064 3064 3065 3066 3067 3068 3069 3071 3073 3075 3076 3077 3078 3079 3081 3083 3085 3086 3087 3089 3090 3091 3093 3094 3095 3096 3097 3098 3099 3100 3102 3102 3103 3104 3105 3107 3107 3108 3108 3108 3108 3108 3109 3109 3110 3111 3111 3112 3112 3113 3113 3113 3112 3112 3112 3112 3113 3114 3116 3117 3119 3121 3123 3124 3125 3126 3127 3129
3048 3049 3051 3051 3052 3054 3054 3055 3055 3056 3057 3058 3059 3060 3061 3062 3063 3063 3063 3064 3064 3065 3066 3067 3068 3069 3071 3073 3075 3076 3077 3078 3079 3081 3083 3084 3086 3087 3088 3090 3091 3092 3093 3094 3095 3096 3097 3098 3100 3101 3102 3103 3104 3105 3105 3106 3107 3107 3107 3107 3107 3107 3108 3109 3109 3110 3110 3111 3111 3111 3111 3111 3111 3111 3111 3112 3114 3116 3117 3119 3120 3120 3121 3123 3124 3126
3048 3048 3050 3051 3053 3054 3055 3055 3056 3056 3057 3058 3059 3059 3060 3061 3062 3063 3063 3063 3064 3065 3066 3067 3068 3069 3070 3072 3073 3074 3076 3077 3078 3080 3081 3083 3084 3086 3087 3088 3089 3090 3091 3093 3094 3094 3095 3097 3098 3099 3100 3101 3102 3103 3103 3104 3104 3105 3105 3105 3105 3105 3106 3106 3107 3107 3108 3109 3109 3109 3109 3109 3109 3109 3109 3110 3111 3113 3115 3116 3117 3118 3119 3120 3121 3123
3048 3048 3050 3051 3052 3054 3055 3055 3056 3056 3057 3058 3058 3059 3059 3060 3062 3063 3063 3063 3064 3065 3065 3066 3067 3068 3069 3071 3072 3073 3074 3076 3077 3078 3080 3081 3083 3084 3085 3087 3088 3089 3090 3091 3091 3092 3094 3095 3096 3097 3098 3099 3100 3100 3101 3102 3102 3102 3102 3102 3102 3103 3103 3104 3104 3104 3105 3106 3106 3106 3106 3106 3106 3107 3107 3108 3109 3110 3111 3112 3114 3116 3117 3117 3119 3120
3047 3048 3049 3051 3052 3054 3055 3056 3057 3056 3056 3056 3057 3058 3059 3060 3061 3062 3063 3064 3064 3065 3066 3066 3067 3068 3069 3070 3071 3072 3073 3075 3076 3077 3079 3080 3081 3082 3084 3085 3086 3087 3088 3088 3089 3091 3092 3093 3094 3094 3095 3096 3097 3097 3098 3098 3099 3099 3099 3099 3100 3100 3101 3101 3102 3102 3103 3103 3103 3104 3104 3104 3104 3105 3105 3105 3106 3107 3108 3109 3112 3113 3114 3114 3115 3115
3046 3047 3049 3049 3051 3053 3054 3056 3057 3057 3057 3057 3057 3058 3059 3060 3061 3062 3063 3064 3065 3065 3066 3066 3067 3068 3069 3070 3071 3072 3073 3074 3075 3076 3077 3078 3079 3080 3082 3083 3083 3084 3085 3086 3087 3088 3089 3090 3091 3092 3092 3093 3094 3094 3095 3095 3095 3096 3097 3097 3097 3098 3098 3099 3100 3100 3101 3101 3101 3102 3102 3102 3102 3103 3103 3103 3104 3104 3105 3106 3108 3109 3110 3111 3110 3110
3044 3046 3047 3048 3050 3051 3053 3054 3055 3056 3057 3057 3057 3058 3059 3060 3061 3062 3063 3063 3064 3065 3065 3065 3066 3067 3068 3069 3070 3071 3072 3073 3075 3076 3076 3077 3078 3079 3080 3081 3082 3083 3083 3084 3084 3085 3086 3087 3088 3089 3089 3090 3090 3091 3091 3092 3093 3093 3094 3095 3095 3095 3096 3096 3097 3098 3098 3099 3100 3100 3100 3100 3101 3101 3101 3101 3102 3102 3103 3104 3104 3105 3106 3106 3105 3105
3043 3044 3045 3046 3048 3050 3052 3053 3054 3055 3056 3056 3056 3056 3058 3059 3060 3061 3061 3062 3064 3064 3065 3065 3065 3065 3066 3067 3068 3070 3071 3072 3073 3074 3075 3076 3077 3078 3079 3080 3081 3082 3082 3083 3083 3083 3084 3084 3084 3085 3086 3087 3087 3088 3088 3089 3090 3090 3091 3092 3093 3093 3093 3094 3094 3095 3096 3097 3097 3098 3098 3098 3099 3099 3099 3099 3100 3100 3100 3101 3101 3101 3102 3102 3101 3101
3043 3044 3044 3045 3047 3049 3051 3052 3053 3054 3054 3054 3054 3056 3056 3057 3058 3059 3060 3061 3062 3063 3064 3064 3065 3065 3066 3066 3067 3068 3069 3070 3071 3073 3074 3075 3076 3077 3078 3079 3080 3080 3081 3081 3081 3081 3081 3081 3081 3082 3082 3082 3083 3084 3085 3086 3087 3087 3088 3089 3089 3090 3091 3091 3092 3092 3093 3094 3095 3095 3096 3096 3096 3097 3097 3097 3097 3097 3098 3099 3099 3099 3099 3099 3098 3099
3042 3044 3045 3045 3046 3048 3050 3052 3053 3053 3052 3052 3053 3054 3055 3056 3057 3058 3059 3060 3061 3062 3063 3063 3064 3064 3065 3066 3067 3068 3068 3069 3071 3072 3073 3074 3074 3075 3076 3077 3078 3078 3079 3079 3079 3079 3079 3079 3080 3080 3080 3080 3081 3082 3083 3083 3084 3084 3085 3085 3086 3086 3087 3088 3089 3090 3090 3091 3092 3093 3093 3094 3094 3094 3094 3094 3095 3095 3095 3096 3096 3096 3097 3097 3096 3097
3042 3043 3044 3045 3046 3047 3049 3050 3050 3051 3051 3052 3053 3053 3054 3055 3056 3057 3058 3059 3060 3060 3061 3062 3063 3063 3064 3065 3066 3067 3068 3069 3070 3071 3072 3073 3073 3073 3074 3075 3076 3076 3077 3077 3077 3077 3077 3077 3078 3079 3079 3079 3080 3080 3080 3081 3081 3082 3082 3082 3083 3083 3084 3084 3085 3085 3085 3086 3088 3089 3090 3090 3091 3091 3091 3092 3092 3092 3092 3093 3093 3093 3094 3094 3094 3094
3041 3041 3042 3044 3045 3046 3047 3048 3049 3050 3050 3050 3051 3052 3053 3054 3055 3056 3057 3058 3059 3059 3060 3061 3062 3063 3064 3065 3065 3066 3067 3068 3069 3070 3071 3072 3072 3072 3073 3074 3074 3075 3075 3075 3075 3076 3075 3075 3076 3076 3077 3077 3077 3077 3078 3078 3078 3078 3079 3079 3080 3080 3081 3081 3081 3081 3081 3082 3084 3085 3086 3086 3087 3087 3088 3088 3089 3089 3089 3090 3090 3090 3091 3091 3091 3092
3039 3040 3041 3042 3043 3044 3045 3047 3049 3050 3049 3048 3049 3050 3051 3053 3054 3055 3057 3058 3058 3059 3059 3060 3061 3062 3063 3064 3065 3066 3067 3067 3068 3069 3069 3070 3070 3071 3071 3072 3072 3073 3073 3073 3073 3073 3073 3073 3073 3074 3074 3074 3074 3074 3075 3075 3075 3075 3075 3076 3076 3077 3077 3078 3078 3079 3079 3079 3080 3081 3081 3082 3083 3083 3084 3085 3086 3086 3087 3087 3087 3087 3088 3088 3089 3090
3037 3038 3039 3040 3041 3041 3042 3044 3046 3046 3046 3046 3047 3049 3050 3052 3053 3055 3057 3057 3057 3058 3058 3059 3060 3062 3062 3063 3064 3065 3065 3066 3066 3067 3068 3068 3068 3069 3069 3069 3069 3070 3070 3070 3070 3070 3070 3070 3070 3070 3070 3071 3071 3072 3072 3072 3072 3072 3071 3072 3072 3073 3074 3074 3075 3076 3076 3076 3076 3077 3077 3078 3079 3080 3081 3082 3083 3083 3084 3084 3084 3085 3086 3086 3087 3088
3035 3036 3037 3038 3039 3039 3040 3041 3042 3043 3043 3044 3046 3047 3049 3051 3052 3054 3055 3054 3054 3056 3057 3058 3059 3060 3061 3062 3063 3063 3064 3064 3065 3065 3066 3066 3066 3066 3066 3067 3067 3067 3067 3067 3067 3067 3067 3067 3067 3067 3067 3067 3067 3067 3068 3068 3069 3069 3068 3068 3069 3069 3070 3070 3071 3071 3072 3073 3073 3074 3075 3076 3076 3077 3078 3079 3080 3081 3081 3081 3081 3082 3083 3084 3085 3085
3034 3034 3035 3036 3037 3038 3039 3040 3041 3042 3042 3043 3045 3046 3048 3050 3051 3052 3051 3051 3052 3055 3056 3057 3058 3059 3059 3060 3060 3061 3062 3062 3062 3063 3063 3063 3064 3064 3064 3064 3064 3064 3064 3064 3064 3064 3064 3064 3063 3063 3063 3063 3062 3062 3063 3063 3064 3064 3064 3065 3065 3065 3066 3066 3067 3067 3068 3069 3070 3070 3071 3072 3073 3074 3075 3076 3077 3078 3078 3079 3079 3079 3079 3080 3081 3082
3033 3034 3034 3035 3036 3037 3037 3039 3040 3041 3041 3043 3044 3045 3047 3049 3049 3048 3048 3050 3052 3053 3054 3055 3056 3057 3057 3058 3058 3059 3059 3059 3060 3060 3060 3060 3060 3060 3060 3060 3060 3060 3060 3060 3059 3059 3059 3059 3059 3059 3059 3059 3058 3058 3058 3058 3058 3059 3059 3060 3060 3061 3061 3061 3062 3063 3064 3065 3066 3066 3066 3067 3069 3070 3071 3072 3073 3074 3075 3075 3076 3076 3076 3077 3078 3079
3033 3034 3034 3034 3035 3036 3037 3038 3039 3040 3041 3042 3043 3044 3046 3047 3047 3047 3048 3049 3050 3051 3052 3053 3054 3055 3055 3055 3056 3056 3056 3056 3057 3057 3057 3057 3057 3057 3056 3056 3056 3056 3055 3055 3054 3054 3053 3054 3054 3054 3055 3055 3054 3054 3053 3053 3053 3054 3054 3054 3055 3056 3056 3056 3056 3057 3058 3059 3061 3061 3062 3062 3064 3065 3066 3067 3067 3068 3069 3070 3071 3072 3072 3073 3074 3075
3033 3034 3034 3034 3035 3036 3036 3037 3038 3039 3040 3041 3042 3044 3045 3045 3046 3047 3047 3048 3049 3050 3050 3051 3052 3052 3053 3053 3053 3054 3054 3054 3054 3054 3053 3053 3053 3053 3052 3052 3051 3051 3050 3050 3049 3049 3048 3048 3048 3049 3049 3049 3049 3049 3048 3047 3047 3047 3048 3049 3050 3050 3049 3050 3050 3051 3051 3053 3054 3056 3057 3058 3058 3059 3059 3060 3061 3062 3063 3064 3065 3066 3068 3069 3070 3071
3033 3033 3034 3034 3035 3036 3036 3037 3038 3039 3040 3041 3042 3043 3044 3044 3045 3046 3047 3047 3048 3049 3049 3050 3050 3050 3051 3051 3051 3051 3051 3051 3051 3050 3050 3049 3049 3049 3048 3047 3046 3046 3045 3044 3044 3043 3042 3041 3041 3041 3042 3042 3042 3041 3041 3040 3039 3039 3040 3042 3043 3043 3043 3043 3044 3044 3045 3046 3047 3049 3051 3052 3053 3054 3054 3054 3055 3056 3058 3059 3060 3062 3063 3064 3065 3066
3033 3033 3034 3034 3035 3036 3036 3037 3038 3039 3040 3041 3041 3042 3043 3044 3044 3045 3045 3046 3046 3047 3047 3047 3047 3048 3048 3048 3048 3048 3048 3047 3047 3046 3046 3045 3044 3043 3042 3041 3041 3039 3038 3038 3037 3036 3035 3034 3033 3033 3033 3033 3034 3033 3032 3032 3030 3030 3031 3033 3034 3034 3035 3035 3036 3037 3038 3039 3041 3042 3044 3045 3047 3048 3049 3050 3051 3052 3053 3055 3056 3057 3058 3059 3061 3061
3033 3033 3034 3034 3035 3036 3036 3037 3038 3039 3039 3040 3041 3042 3042 3042 3043 3043 3044 3044 3044 3044 3045 3045 3045 3045 3045 3045 3044 3044 3043 3043 3042 3041 3040 3040 3039 3038 3037 3036 3035 3034 3032 3031 3030 3029 3028 3027 3026 3025 3025 3025 3025 3025 3024 3024 3024 3023 3023 3024 3024 3025 3026 3027 3027 3029 3030 3032 3034 3035 3037 3039 3040 3042 3043 3045 3046 3047 3049 3050 3051 3052 3053 3055 3056 3057
3033 3033 3034 3034 3035 3035 3036 3037 3038 3038 3039 3040 3040 3041 3041 3042 3042 3042 3043 3043 3043 3043 3043 3042 3042 3042 3041 3041 3040 3040 3039 3038 3037 3036 3036 3035 3034 3033 3031 3030 3029 3028 3027 3025 3024 3023 3021 3020 3019 3018 3017 3017 3017 3017 3016 3016 3017 3016 3016 3016 3016 3016 3017 3018 3019 3020 3022 3024 3027 3028 3030 3032 3034 3035 3037 3039 3040 3042 3043 3045 3046 3048 3049 3051 3052 3053
3033 3033 3034 3034 3035 3035 3036 3036 3037 3038 3039 3039 3040 3041 3041 3041 3042 3042 3042 3042 3041 3041 3041 3040 3039 3039 3038 3037 3036 3036 3035 3034 3033 3032 3031 3030 3029 3028 3026 3025 3023 3022 3021 3020 3018 3016 3015 3013 3012 3011 3010 3010 3009 3008 3008 3008 3009 3009 3008 3008 3008 3007 3008 3009 3011 3012 3014 3016 3019 3021 3023 3025 3027 3028 3031 3033 3034 3036 3038 3040 3041 3043 3045 3047 3048 3049
3033 3033 3034 3034 3035 3035 3035 3036 3036 3037 3038 3038 3039 3039 3039 3039 3040 3040 3039 3039 3039 3038 3038 3037 3036 3035 3034 3033 3032 3032 3031 3030 3029 3028 3026 3025 3024 3023 3021 3019 3018 3016 3015 3013 3012 3010 3009 3007 3005 3004 3003 3002 3001 3000 3000 3000 3000 3000 3000 3000 3000 2999 3000 3001 3003 3004 3006 3008 3010 3013 3016 3018 3020 3022 3023 3025 3027 3029 3031 3033 3035 3037 3040 3042 3044 3045
3033 3033 3033 3034 3034 3035 3035 3035 3036 3036 3036 3037 3037 3037 3037 3037 3036 3036 3036 3035 3035 3034 3034 3033 3032 3031 3030 3029 3029 3028 3027 3026 3025 3024 3023 3022 3020 3018 3016 3014 3012 3010 3009 3007 3005 3004 3002 3001 2999 2998 2996 2995 2994 2993 2992 2991 2991 2991 2991 2991 2991 2992 2992 2993 2994 2995 2998 3000 3003 3005 3008 3010 3012 3014 3016 3018 3020 3023 3024 3026 3028 3030 3033 3036 3038 3040